Location: Eckley Miners' Village
(40.9930°N, 75.8630°W)
Time: 00:33:26
(UTC-04:00)

Vanguard 1 Rocket - Pass Details

Date: 11 March 2026
Orbit: 654 x 4213 km, 34.3° (Epoch: 18 April)

Event Time Altitude Azimuth Distance (km) Brightness Sun altitude
Rises 11:19:29 0° 259° (W) 2,965 9.8 38.4°
Reaches altitude 10° 11:21:40 10° 251° (WSW) 2,098 9.2 38.7°
Maximum altitude 11:25:57 41° 180° (S) 1,130 9.3 39.2°
Drops below altitude 10° 11:32:01 10° 112° (ESE) 2,964 10.9 39.8°
Sets 11:35:42 0° 106° (ESE) 4,390 11.4 40.2°
